SL-8 DEB, 1618

Orbit data source: Space-Track

SL-8 DEB, 1618 is space debris in LEO originally from a launch on Sat, 18 Sep 1965 UTC launched from the Tyuratam Missile And Space Complex (TTMTR). Debris objects in space refer to the collection of defunct objects orbiting the Earth. Examples of debris include non-operational satellites, rocket bodies, and fragments generated from explosions, collisions, or faulty payload assembly.

Loading next visibility...
Identifier
1618, 1965-073K
Orbit
LEO
Country
Flag of CISCIS
Related business
Manufacturer
Unknown
Mission
Spacecraft
Bus & Motor
Unknown
Mass
Unknown
Launch date (UTC)
1965-09-18 (61 years ago)
Launch vehicle
Unknown
Launch site
Tyuratam Missile And Space Complex (TTMTR)
Object type
Payload
Rocket body
Debris
Shape & HBR
Unknown shape, 0.2 m
Radar Cross Section
Medium (>0.1 m² and <1 m²)

Expand to show TLE details & history
Last TLE update: 4 hours ago

TLE from 4 hours ago
0 SL-8 DEB
1  1618U 65073K   26119.86162093  .00000013  00000-0  79657-3 0  9992
2  1618  56.1759 274.0408 0225374 197.5567 329.6101 12.30400910717163
Epoch: 2026-04-29T20:40Z
TLE epoch observation values (Epoch: 2026-04-29T20:40:44.048Z)
Latitude
11.72563°
Longitude
-81.91348°
Altitude
1,394.844 km
Speed
7.233 km/s
True Right ascension
05h 44m 20s
True Declination
11° 39' 47"
Sunlit
Object was in daylight at epoch
Visualization orbit readout
Latitude
Unknown
Longitude
Unknown
Altitude
Unknown
Speed
Unknown
Apparent Right ascension
Unknown
Apparent Declination
Unknown
Sunlit
N/A
Visualization observer readout
Local Sidereal Time
08:35:27
Azimuth
Unknown
Elevation
Unknown
Doppler factor
Unknown
Orbital elements
Apogee altitude
1,725.988 km
Perigee altitude
1,368.748 km
Semi-major axis
7,925.505 km
Eccentricity
0.02254
Inclination
56.1759°
RAAN
274.0408°
Arg. of periapsis
197.5567°
True anomaly
328.27123°
Mean anomaly
329.6101°
Eccentric anomaly
328.94395°
Mean motion
3.07612 °/min
Orbital period
117.03 mins
BSTAR
0.00079657
Loading maneuver chart data...
Computing Atmospheric mass density...
Loading historical data...
Loading historical data...
Loading historical data...
Loading historical data...
Loading historical data...
Loading historical data...
Loading historical data...

Documentation

Showing up to 5 results
|